View from above orbital plane
|
View from above satellite
|
Ground track
|
The orbit data is extracted from the following two-line orbital elements,
1 20480U 90013C 13143.74178748 -.00000034 00000-0 -97363-5 0 4352
2 20480 099.0238 175.7170 0540958 156.5174 325.8383 12.83383915 91178
| Epoch (UTC): | 23 May 2013 17:48:10 |
| Eccentricity: | 0.0540958 |
| inclination: | 99.0238° |
| perigee height: | 911 km |
| apogee height: | 1745 km |
| right ascension of ascending node: | 175.7170° |
| argument of perigee: | 156.5174° |
| revolutions per day: | 12.83383915 |
| mean anomaly at epoch: | 325.8383° |
| orbit number at epoch: | 9117 |
The dashed part of the orbit path shows where the satellite is in the earth's shadow,
|
|